GFSNIL_con_sbcape_117.txt.gz
CAPE
164 23 507 680 426 184 474 604 888 1066 1129 1337 1478 1201 1519 1442 1638 1493 1792 1788 1676 1941
786 745 532 717 126 253 831 1189 656 687 1030 977 1350 1217 1462 1458 1341 1237 1735 1543 1323 1633
745 854 834 725 7 587 380 19 0 0 186 978 1260 1435 1359 1103 610 1316 1321 1288 1152 1554
772 1009 739 1062 846 795 131 0 0 0 323 816 1002 994 1117 1010 791 976 1061 1205 1294 1294
849 657 1039 707 886 534 0 4 589 674 983 1016 1077 1381 1257 1388 1121 949 1033 1238 1101 1050
598 756 757 898 708 834 648 621 873 928 1320 1265 1196 1100 859 879 1056 1114 941 860 906 971
384 275 491 734 735 759 1022 1011 1056 1088 1040 1036 548 269 568 647 1067 691 906 832 1010 944
346 435 434 481 353 363 892 794 686 689 400 0 0 2 4 416 178 241 151 4 506 6
252 233 218 225 195 391 270 333 515 59 0 0 0 1 0 0 47 200 75 5 78 0
74 9 1 47 77 217 252 181 3 0 0 0 0 0 0 0 39 181 0 29 75 0
6 0 0 0 10 69 9 1 2 2 0 0 0 0 0 0 78 0 0 0 0 0
0 0 0 0 2 5 0 0 1 0 0 0 0 0 0 29 0 0 0 0 0 0
31 0 0 0 3 3 2 1 0 0 0 0 0 0 0 0 1 0 0 0 0 0
0 0 0 0 0 0 0 0 0 0 0 0 0 0 0 0 0 0 0 0 0 0

GFSNIL_con_sbcape_123.txt.gz
CAPE
69 63 120 279 271 295 322 309 388 642 481 379 436 619 739 776 787 776 799 884 785 174
27 4 66 239 166 108 190 274 331 610 650 468 671 590 588 651 553 408 712 665 621 760
87 11 13 235 278 135 61 365 697 468 515 567 490 582 483 627 522 500 713 506 385 710
151 125 236 279 174 31 190 127 156 128 70 349 483 540 694 586 430 352 391 408 477 417
138 207 377 307 237 0 227 28 0 0 0 255 426 481 551 557 678 381 400 339 484 518
131 173 263 272 375 160 212 96 0 0 0 290 428 457 501 542 665 645 407 437 376 328
192 145 203 203 177 210 124 6 0 18 259 506 506 514 501 544 445 559 404 262 273 290
177 124 154 219 259 253 209 191 216 266 140 57 25 0 12 85 340 220 173 1 0 0
64 53 0 0 70 83 88 145 89 0 0 0 0 0 0 0 48 69 10 0 0 0
57 46 12 5 18 42 86 1 0 0 0 0 0 0 0 0 0 2 0 0 0 0
38 19 5 9 4 28 24 0 0 0 0 0 0 0 0 0 0 0 0 0 0 0
0 5 1 1 1 1 0 1 0 0 0 0 1 1 0 0 0 0 0 0 0 0
6 1 2 2 2 1 0 0 0 0 0 0 0 1 0 0 0 0 0 0 0 0
1 2 2 3 1 0 0 1 1 1 1 0 0 1 0 0 0 0 0 0 0 0

GFSNIL_con_sbcape_129.txt.gz
CAPE
1256 1039 1066 1273 1081 1194 1266 1253 1808 1984 1962 1869 1490 1707 2308 2206 1998 2123 2066 2317 2270 1221
1106 1097 1084 1289 1348 1316 1535 1351 1592 1680 1906 1864 1674 1552 2091 1969 2201 2243 2312 2150 2147 2144
865 964 1062 1209 1329 1358 1574 1432 1415 1523 1626 1930 1721 1460 1866 1872 2108 2026 1653 1716 2145 2245
923 900 937 880 1175 1418 1484 1373 1318 1489 1560 1704 1825 1804 2102 2057 1858 1948 1917 1828 2211 1985
910 990 846 892 912 1120 1485 1424 1374 1399 1537 1719 1541 1785 1790 1677 1324 1800 1686 1541 1788 1846
788 792 832 1025 1104 1149 1380 1217 1138 1094 1212 1226 1321 1582 1668 1615 1889 1507 1596 1541 1480 1631
1002 864 838 1107 1113 1405 1613 1255 1043 1172 1068 882 885 1171 1475 1620 1749 1579 1480 1758 1698 1664
1321 1180 1200 1358 1363 1328 1354 1337 1330 1321 1087 963 901 757 1279 1757 1668 1779 1715 1750 1697 1394
1409 1442 1432 1420 1411 1457 1430 1403 1444 1312 1329 1277 710 0 0 232 1315 1626 1797 1694 867 241
1380 1045 1409 1391 1380 1333 1394 1420 1342 1299 1404 1428 1156 0 0 0 386 751 1094 1139 86 31
968 1154 1221 1200 1307 1359 1074 725 676 438 376 246 71 0 0 0 197 278 347 131 4 0
321 105 51 100 151 114 119 21 13 2 4 5 4 1 1 0 31 6 0 0 0 0
254 35 140 1 1 2 1 4 1 1 0 0 1 1 0 1 8 0 0 0 0 0
81 13 0 2 1 1 1 1 2 1 0 1 1 1 0 0 0 0 0 0 0 0

GFSNIL_con_sbcape_132.txt.gz
CAPE
1678 2098 762 1167 969 1012 883 1033 1297 1962 1733 1929 2018 1441 2164 2089 1743 1704 1870 2410 2747 1739
1598 1206 1145 1307 1392 1051 1402 1139 1585 1630 1740 1780 2014 1677 1783 1562 1929 1888 2081 1752 2252 2125
1428 1357 1524 1379 1367 1114 1244 1341 1470 1580 1629 1631 1820 1961 1830 1433 2006 2182 1534 1374 1482 2191
1068 1084 1455 1915 1684 1644 1694 1429 1323 1365 1342 1563 1705 1932 2097 1834 1438 1870 1849 1783 1635 2013
965 1055 1034 1430 1491 1571 1967 1075 1345 1256 1172 1293 1503 1749 1908 1802 1441 1501 1686 1664 1663 1632
938 1092 1134 1084 1374 1370 1721 1738 1653 1685 1975 1762 1741 1659 1774 1719 1676 1588 1567 1358 1498 1422
1199 1112 1157 1085 1298 1362 1769 1714 1762 1913 1876 1903 1688 1966 2004 1820 1822 1505 1443 1510 1538 1507
1538 1565 1498 1344 1362 1594 1610 1757 2035 1829 1692 1708 1633 1344 1678 1887 1856 1646 1525 1495 1564 1512
1889 2012 2152 2054 1754 1983 1821 1886 1894 1757 1553 1710 1315 56 285 634 1545 1697 1633 1462 1478 1453
1658 1528 1771 2041 2270 2056 1900 1749 1792 1751 1639 1438 1574 0 0 0 862 1336 1594 1647 2051 1492
1243 1443 1569 1737 2250 1040 2285 2320 1778 1428 1617 1610 1397 0 0 0 264 1258 1491 1436 1475 1199
938 1127 1371 1243 1761 1435 1584 1199 1495 1083 1076 991 890 0 0 0 180 848 833 750 778 389
517 361 291 818 817 23 1 0 0 2 18 3 100 1 1 0 193 291 131 4 1 0
682 431 468 350 78 13 5 1 3 2 0 0 4 5 0 1 6 40 3 0 0 0

GFSNIL_con_sbcape_135.txt.gz
CAPE
1743 1371 1375 1623 1936 806 2388 900 2933 2244 1671 1709 2026 1785 1954 2130 1771 2716 1842 2409 3040 2146
1938 1530 1555 1945 1617 1264 2320 1381 1754 1589 1652 1702 1759 1920 1884 1704 1988 1594 2263 1839 2265 2292
1633 1818 1624 1729 1856 1485 1245 1496 1612 1596 1961 1802 1705 1956 2141 2111 2392 1811 1368 953 2592 2077
1040 1262 1948 1468 1371 1618 1595 1556 1513 1676 1766 1586 1731 1980 1925 2862 2282 2057 1972 2025 2155 1921
965 1046 1141 1692 1367 2540 1642 1628 1680 1826 1877 1726 1539 1750 2102 1840 1590 1974 1567 1613 2042 1595
894 924 1080 1892 1416 2165 2564 2262 1232 1683 1831 1735 1684 1925 1916 2070 1767 1989 1915 1590 2325 1541
1146 1042 941 1450 1648 1537 2243 2091 1963 1924 2395 2427 1849 1727 1672 2188 2382 2188 1482 1649 1896 2025
2652 2340 2343 2579 2501 2025 2184 2117 2039 2055 2450 2487 1987 1583 2409 2044 1983 2404 1713 2045 1835 1612
1728 2145 2380 2417 2507 2660 2293 2396 2291 1947 2052 1782 1504 165 443 757 1826 2466 2446 1610 1962 2353
1810 2076 2014 2330 2650 2567 2301 2518 2416 1835 1698 2119 2244 49 0 76 843 941 1535 1844 2385 1868
1421 1615 1765 1840 1854 2551 2919 2994 1278 2342 2048 2255 1493 0 0 0 576 1165 1363 1408 1390 1676
1393 1047 1211 1900 1941 1709 2603 2422 1693 1436 1416 1602 1315 0 0 0 340 655 1244 1076 780 312
714 958 837 733 938 1285 1798 1877 1455 911 898 2 18 1 1 0 75 455 1077 298 173 0
420 335 444 524 504 545 447 345 281 24 4 2 0 1 0 0 11 115 485 138 10 0

GFSNIL_con_sbcape_138.txt.gz
CAPE
2542 2164 801 2520 2756 1571 1555 1021 2629 2752 3230 3030 3198 2946 3106 3195 3050 3074 3218 3560 4463 3260
2472 2388 1961 2019 3066 2087 3026 2527 2371 2567 2628 3142 2903 2464 3204 2690 2984 2953 3239 3241 3529 3677
1782 2317 2834 2551 1906 1787 2437 2198 1075 1713 1425 2916 2710 2352 2721 2434 2664 2783 2682 1832 2363 2800
1840 1970 2228 2309 968 680 2856 2534 2835 1591 781 2554 2194 2932 2718 2781 2677 2249 2319 2457 2420 2392
1747 1661 1920 2100 2466 2673 2858 2522 2346 2431 2113 2162 2535 2711 2927 2354 1911 1750 1978 2133 2162 2782
1275 1952 1883 1765 1813 2064 2358 2742 2420 2775 3067 2837 2684 2571 2748 2697 2290 2393 2406 2007 1802 2135
1798 1309 1507 2280 1936 1640 2082 2139 2347 2732 2729 2882 2667 2625 2428 2382 2338 2077 1840 2044 1814 1918
1892 2307 2777 2761 2742 2428 2122 2195 2372 2128 2091 2555 2151 1489 2018 1861 2659 2363 1535 2075 2094 1672
2175 2666 2839 2838 2825 2506 2349 2378 2902 2641 2581 2202 1569 342 288 1527 1756 1723 1729 1642 1424 1529
2199 2375 2518 2425 2376 2389 2466 2514 2618 2335 1540 1865 2370 175 207 204 1176 1962 2416 2387 2273 2016
1574 2153 2295 1945 1702 1651 1798 2265 1595 1624 1726 1630 1513 1 0 0 1041 1122 1419 1559 1849 1971
1313 1341 1550 1657 1810 2129 2036 2196 2203 1752 1446 1198 192 0 0 1 1202 1120 957 1173 5 15
357 558 842 1017 875 1227 1159 1537 1735 1679 1242 17 2 1 1 0 62 283 767 1019 0 0
142 171 137 12 1 1 8 111 4 41 5 1 0 0 0 1 0 85 354 90 0 0

GFSNIL_con_sbcape_141.txt.gz
CAPE
1052 855 579 694 1077 773 941 540 834 1508 1546 1748 1922 1709 1182 1787 1525 1721 1649 1500 2182 1704
1285 847 342 0 1325 1241 1062 725 2133 1818 1627 1453 1546 1781 1244 1125 1188 1378 1391 1669 1531 1925
1123 1101 1000 982 867 1017 1197 1371 1461 845 964 1473 1489 1539 1677 1306 1282 1378 1207 1368 1211 883
741 1075 1254 1177 665 291 546 1084 755 748 476 1027 1396 1323 1574 1005 1420 1180 1070 1008 776 1258
541 1049 1104 1016 847 626 166 1056 1264 940 260 339 1141 1048 1064 1270 1160 1159 931 753 743 992
693 996 1171 1026 1261 1026 1258 1276 1397 1045 1051 957 1175 1257 1217 1486 1532 1432 1507 1391 1088 969
810 679 765 936 978 1175 1179 1252 1377 1269 1316 1378 1187 1140 1355 1488 1412 1369 1444 1231 1065 1047
664 482 783 1030 846 1156 1138 1107 1008 1114 1161 1376 1668 1625 1333 1454 1471 1336 1225 1197 1106 1017
795 871 709 1140 1099 689 509 883 949 1180 1146 985 1211 1116 669 294 723 1069 1245 1020 821 673
894 1036 835 823 850 903 984 1136 1156 1187 1243 1417 1300 789 304 179 657 809 815 850 906 933
320 600 755 680 723 723 807 804 813 1148 855 718 409 82 3 11 74 454 478 549 504 749
572 497 444 426 409 593 394 451 553 452 375 480 0 0 0 0 76 392 314 45 0 0
118 257 256 347 350 161 180 74 21 1 1 1 0 1 1 1 0 12 21 0 0 0
135 90 0 1 0 0 1 0 1 0 1 0 0 0 0 0 0 0 0 1 0 0

GFSNIL_con_sbcape_144.txt.gz
CAPE
615 291 479 688 505 612 586 447 620 790 784 861 940 895 748 1011 909 1216 1065 1113 1150 1160
656 711 389 445 718 474 534 516 564 542 1121 956 1156 1141 604 632 753 905 784 945 981 861
765 642 445 27 407 756 769 665 876 1158 1106 1039 891 937 1059 833 605 919 771 810 781 596
705 790 463 709 468 617 644 978 1061 624 658 977 1073 1061 1076 944 628 1004 581 817 624 485
615 669 783 865 476 218 149 723 663 664 376 408 814 807 835 1005 854 676 648 437 379 451
397 487 580 678 701 361 205 95 883 658 420 194 243 766 717 763 891 745 852 932 726 696
278 385 629 700 595 579 493 632 710 829 677 624 587 809 1019 995 1134 922 946 920 925 791
8 170 429 614 639 639 704 752 799 825 812 970 1042 947 850 975 1017 899 863 904 886 870
0 0 111 509 664 637 707 732 725 733 693 778 897 1409 1138 967 868 881 806 790 613 660
0 0 20 305 440 492 422 413 499 620 694 775 687 866 869 614 320 371 475 721 607 397
0 0 20 177 288 439 358 423 410 525 670 670 599 418 59 49 71 183 329 475 539 527
0 2 11 126 61 115 226 271 337 339 302 249 1 1 1 0 58 191 172 17 0 33
80 57 141 101 127 54 66 82 1 1 1 1 0 1 1 1 1 11 2 0 0 0
34 46 16 5 0 1 1 2 1 1 3 4 0 2 3 1 0 0 0 0 0 0